Voltar ao catálogo

CZ-3 R/B

AtivoHEO
NORAD 29517·ROCKET BODY·🇨🇳 China

Lançado Oct 28, 2006 de Xichang Satellite Launch Center

Loading…

Próximas Passagens (próximas 24 horas)

TLE

AtualizadoSource: Space-Track

Época: Sep 14, 2026, 19:04 UTC

1 29517U 06048B   26257.79493452  .00000029  00000-0  12144-4 0  9994
2 29517  28.2347 312.6618 4034171 169.4182 202.6793  6.89904339400037

Acompanhe CZ-3 R/B em tempo real com AllMySat

Download on the App Store